Location: Unspecified
(35.6961°N, 0.0000°E)
Time: 05:25:37
(UTC+00:00)

Vanguard 2 Rocket - Pass Details

Date: 25 May 2019
Orbit: 554 x 3326 km, 32.9° (Epoch: 19 June)

Event Time Altitude Azimuth Distance (km) Brightness Sun altitude
Rises 05:20:58 0° 242° (WSW) 7,309 10.8 5.1°
Reaches altitude 10° 05:26:04 10° 240° (WSW) 6,236 10.5 6.1°
Maximum altitude 05:45:10 67° 163° (SSE) 2,768 9.5 9.7°
Drops below altitude 10° 05:57:16 10° 85° (E) 4,173 12.5 12.1°
Sets 05:59:57 0° 82° (E) 4,863 12.6 12.6°
